Welcome to the New NWS' Forecast!
Most changes are behind the scenes, but click here for differences you might notice.

Regional Weather Roundup (RWR)

Issued by Memphis, TN (MEG)

                            
000
ASUS44 KMEG 200010
RWRMEG
MEMPHIS CWA HOURLY WEATHER ROUNDUP
NATIONAL WEATHER SERVICE MEMPHIS TN
600 PM CST MON NOV 19 2018

...WEST TENNESSEE...
  
CITY           SKY/WX    TMP DP  RH WIND       PRES   REMARKS
MEMPHIS INTL   CLOUDY    47  40  76 NW6       30.14R                  
6HR MIN TEMP:  47; 6HR MAX TEMP:  50;                                

NWS MEMPHIS      N/A     46 N/A N/A MISG        N/A                   
JACKSON        CLOUDY    47  40  76 NW6       30.13R                  
6HR MIN TEMP:  46; 6HR MAX TEMP:  49;                                

COVINGTON      CLOUDY    46  39  76 NW7       30.15R                  
SOMERVILLE     CLOUDY    48  39  71 NW6       30.12R                  
LEXINGTON      CLOUDY    48  41  76 VRB5      30.12R                  
SELMER         CLOUDY    46  41  81 CALM      30.11S                  
DYERSBURG      CLOUDY    44  39  82 NW5       30.16R                  
6HR MIN TEMP:  44; 6HR MAX TEMP:  46;                                

UNION CITY     CLOUDY    43  41  93 CALM      30.14R                  
PARIS          CLOUDY    43  41  93 W5        30.13R FOG              
HUNTINGDON     CLOUDY    45  41  87 W3        30.12R                  


...EASTERN ARKANSAS...
  
CITY           SKY/WX    TMP DP  RH WIND       PRES   REMARKS
JONESBORO      CLOUDY    45  38  76 NW5       30.16R                  
6HR MIN TEMP:  45; 6HR MAX TEMP:  47;                                

WEST MEMPHIS   CLOUDY    49  42  77 VRB5      30.14R                  
6HR MIN TEMP:  49; 6HR MAX TEMP:  51;                                

BATESVILLE     CLOUDY    43  35  73 N3        30.17R                  
6HR MIN TEMP:  43; 6HR MAX TEMP:  45;                                

NEWPORT        CLOUDY    44  37  76 NW6       30.18R                  
6HR MIN TEMP:  44; 6HR MAX TEMP:  47;                                

WALNUT RIDGE   CLOUDY    43  36  76 NW8       30.17R                  
6HR MIN TEMP:  43; 6HR MAX TEMP:  45; 6HR PCP:  0.01;                

BLYTHEVILLE    CLOUDY    45  37  73 NW6       30.15R                  
6HR MIN TEMP:  44; 6HR MAX TEMP:  48;                                

SEARCY         CLOUDY    44  40  85 CALM      30.18R                  
6HR MIN TEMP:  44; 6HR MAX TEMP:  46;                                

STUTTGART      MOCLDY    45  38  76 NW10      30.18R                  
6HR MIN TEMP:  44; 6HR MAX TEMP:  50;                                

PINE BLUFF     MOCLDY    45  37  73 N7        30.18R                  
6HR MIN TEMP:  45; 6HR MAX TEMP:  51;                                

MONTICELLO     FAIR      46  42  86 CALM      30.16R                  
6HR MIN TEMP:  45; 6HR MAX TEMP:  53;                                



...NORTH MISSISSIPPI...
  
CITY           SKY/WX    TMP DP  RH WIND       PRES   REMARKS
TUPELO         CLOUDY    50  46  86 W3        30.13R                  
6HR MIN TEMP:  50; 6HR MAX TEMP:  55; 6HR PCP:  0.02;                

OXFORD         CLOUDY    45  45 100 CALM      30.14R                  
BATESVILLE     CLOUDY    48  43  81 NW7       30.14R                  
OLIVE BRANCH   CLOUDY    45  41  87 NW5       30.14R                  
TUNICA           N/A     46  36  66 W8        30.17R                  
CLARKSDALE     CLOUDY    50  45  81 NW6       30.16R                  
CORINTH        CLOUDY    48  43  81 NW7       30.12R                  
GREENWOOD      CLOUDY    49  48  97 VRB5      30.15R                  
6HR MIN TEMP:  49; 6HR MAX TEMP:  52; 6HR PCP:  0.05;                

COLUMBUS       CLOUDY    55  54  94 SW3       30.11R                  
6HR MIN TEMP:  53; 6HR MAX TEMP:  56; 6HR PCP:  0.04;                

STARKVILLE     CLOUDY    54  52  94 CALM      30.13R                  
GOLDEN TRIANGL CLOUDY    56  54  93 W7        30.12R                  
6HR MIN TEMP:  55; 6HR MAX TEMP:  56; 6HR PCP: TRACE;                



...SOUTHEAST MISSOURI...
  
CITY           SKY/WX    TMP DP  RH WIND       PRES   REMARKS
KENNETT        CLOUDY    45  39  81 W5        30.14R                  
MALDEN         MOCLDY    45  37  76 NW3       30.16R                  
WEST PLAINS    CLOUDY    38  33  82 W6        30.16R WCI  33          
6HR MIN TEMP:  38; 6HR MAX TEMP:  40;                                

POPLAR BLUFF   CLOUDY    43  36  76 NW7       30.16R                  
6HR MIN TEMP:  42; 6HR MAX TEMP:  44;                                

CAPE GIRARDEAU CLOUDY    41  35  79 NW3       30.15R                  
6HR MIN TEMP:  41; 6HR MAX TEMP:  42;                                



...NORTHWEST ALABAMA...
  
CITY           SKY/WX    TMP DP  RH WIND       PRES   REMARKS
MUSCLE SHOALS  CLOUDY    49  47  93 NW5       30.12R                  
6HR MIN TEMP:  49; 6HR MAX TEMP:  58; 6HR PCP: TRACE;                



...MIDDLE TENNESSEE...
  
CITY           SKY/WX    TMP DP  RH WIND       PRES   REMARKS
NASHVILLE      CLOUDY    50  39  66 W6        30.10R                  
6HR MIN TEMP:  50; 6HR MAX TEMP:  57; 6HR PCP: TRACE;                

CLARKSVILLE    CLOUDY    44  38  79 W8        30.12R                  
6HR MIN TEMP:  44; 6HR MAX TEMP:  46;                                

DICKSON        CLOUDY    45  41  87 NW5       30.10R                  
COLUMBIA       CLOUDY    48  46  93 CALM      30.09R                  
LAWRENCEBURG   CLOUDY    46  45  93 CALM      30.10R FOG              
LEWISBURG      CLOUDY    48  45  87 VRB3      30.09R                  


...WESTERN KENTUCKY...
  
CITY           SKY/WX    TMP DP  RH WIND       PRES   REMARKS
PADUCAH        CLOUDY    41  36  82 NW5       30.13R                  
6HR MIN TEMP:  41; 6HR MAX TEMP:  43;                                

FORT CAMPBELL  CLOUDY    44  41  90 W9        30.11                   
6HR MIN TEMP:  44; 6HR MAX TEMP:  46;                                



...CENTRAL ARKANSAS...
  
CITY           SKY/WX    TMP DP  RH WIND       PRES   REMARKS
LITTLE ROCK    PTCLDY    39  33  79 N8        30.19R WCI  33          
6HR MIN TEMP:  39; 6HR MAX TEMP:  48;                                



SKY/WX REPORTED AS FAIR MEANS FEW OR NO CLOUDS BELOW
12 THOUSAND FEET.